Weather observations for the past three days for
Petaluma Municipal Airport
Imperial (Metric)
Date Time (pdt) Wind (mph) Vis. (mi.) Weather Sky Cond. Temperature (ºF) Relative Humidity Wind Chill (°F) Heat Index (°F) Pressure Precipitation (in)
Air Dwpt 6 hour altimeter (in) sea level (mb) 1 hr 3 hr 6 hr
Max. Min.
18 21:35 N 5 10.00 Fair CLR 59 50 72% 30 0.0
18 21:15 Calm 10.00 Fair CLR 60.8 50 68% 29.99 0.0
18 20:50 NW 5 9.00 Fair CLR 60.8 50 68% 29.99 0.0
18 20:35 NW 3 9.00 Fair CLR 62.6 50 64% 29.98 0.0
18 20:15 Calm 9.00 Fair CLR 64.4 50 60% 29.98 0.0
18 19:55 W 5 G 13 10.00 Fair CLR 66.2 48.2 52% 29.97 0.0
18 19:35 W 12 G 17 9.00 Fair CLR 68 48.2 49% 29.97 0.0
18 19:15 Vrbl 6 G 12 9.00 Fair CLR 69.8 50 50% 29.96 0.0
18 18:55 NW 6 G 12 9.00 Fair CLR 71.6 50 47% 29.96 0.0
18 18:35 Vrbl 7 10.00 Fair CLR 75.2 50 41% 78 29.95 0.0
18 18:15 W 8 10.00 Fair CLR 77 48.2 36% 78 29.95 0.0
18 17:55 Vrbl 5 10.00 Fair CLR 78.8 50 37% 79 29.96 0.0
18 17:35 Vrbl 5 G 12 9.00 Fair CLR 78.8 50 37% 79 29.96 0.0
18 17:15 Vrbl 5 9.00 Fair CLR 78.8 50 37% 79 29.96 0.0
18 16:55 Vrbl 7 9.00 Fair CLR 78.8 51.8 39% 79 29.97 0.0
18 16:35 W 6 9.00 Fair CLR 78.8 51.8 39% 79 29.97 0.0
18 16:15 W 9 10.00 Fair CLR 78.8 53.6 42% 79 29.97 0.0
18 15:55 W 8 9.00 Fair CLR 78.8 53.6 42% 79 29.98 0.0
18 15:35 Vrbl 7 9.00 Fair CLR 78.8 55.4 45% 79 29.98 0.0
18 15:15 Vrbl 7 10.00 Fair CLR 78.8 53.6 42% 79 29.98 0.0
18 14:55 NW 8 9.00 Fair CLR 80.6 53.6 39% 80 29.99 0.0
18 14:35 W 13 9.00 Fair CLR 82.4 51.8 35% 81 29.99 0.0
18 14:15 NW 8 9.00 Fair CLR 84.2 53.6 35% 83 29.98 0.0
18 13:55 W 6 G 13 9.00 Fair CLR 86 51.8 31% 84 29.99 0.0
18 13:35 W 8 9.00 Fair CLR 86 55.4 35% 85 29.99 0.0
18 13:15 W 9 9.00 Fair CLR 84.2 53.6 35% 83 29.99 0.0
18 12:55 W 12 9.00 Fair CLR 86 53.6 33% 84 29.99 0.0
18 12:35 Vrbl 7 9.00 Fair CLR 84.2 53.6 35% 83 29.99 0.0
18 12:15 Vrbl 5 9.00 Fair CLR 84.2 53.6 35% 83 29.99 0.0
18 11:55 W 8 10.00 Fair CLR 80.6 53.6 39% 80 29.99 0.0
18 11:35 SW 8 10.00 Fair CLR 78.8 53.6 42% 79 29.99 0.0
18 11:15 W 8 G 14 9.00 Fair CLR 78.8 55.4 45% 79 30 0.0
18 10:55 W 8 10.00 Fair CLR 75.2 55.4 50% 78 30 0.0
18 10:35 Vrbl 5 10.00 Fair CLR 71.6 55.4 57% 30 0.0
18 10:15 Calm 10.00 Fair CLR 68 55.4 64% 30.01 0.0
18 09:55 Calm 10.00 Fair CLR 66.2 55.4 68% 30.01 0.0
18 09:35 Calm 10.00 Fair CLR 64.4 55.4 73% 30.01 0.0
18 09:15 W 5 9.00 Fair CLR 62.6 53.6 73% 30.02 0.0
18 08:55 Calm 9.00 Fair CLR 59 55.4 88% 30.02 0.0
18 08:35 Calm 9.00 Fair CLR 57.2 57.2 100% 30.02 0.0
18 08:15 W 3 8.00 Fair CLR 53.6 53.6 100% 30.02 0.0
18 07:55 Calm 8.00 Partly Cloudy SCT002 51.8 51.8 100% 30.02 0.0
18 07:35 Calm 0.75 Fog/Mist OVC002 51.8 51.8 100% 30.01 0.0
18 07:15 Calm 0.75 Fog/Mist OVC003 50 50 100% 30.01 0.0
18 06:55 Calm 0.75 Fog/Mist OVC003 50 50 100% 30.01 0.0
18 06:35 Calm 0.15 Fog OVC001 48.2 48.2 100% 30 0.0
18 06:15 Calm 0.50 Fog OVC002 48.2 48.2 100% 30 0.0
18 05:55 Calm 0.75 Fog/Mist OVC001 48.2 48.2 100% 29.99 0.0
18 05:35 Calm 0.25 Fog OVC002 48.2 48.2 100% 29.99 0.0
18 05:15 Calm 0.25 Fog OVC002 50 50 100% 29.99 0.0
18 04:55 Calm 0.25 Fog OVC002 50 50 100% 29.99 0.0
18 04:35 Calm 0.75 Fog/Mist OVC002 50 50 100% 29.98 0.0
18 04:15 Calm 6.00 Fog/Mist BKN003 BKN021 BKN029 50 50 100% 29.98 0.0
18 03:55 Calm 10.00 A Few Clouds FEW030 48.2 48.2 100% 29.98 0.0
18 03:35 Calm 9.00 Fair CLR 50 50 100% 29.98 0.0
18 03:15 Calm 8.00 Mostly Cloudy BKN003 51.8 51.8 100% 29.99 0.0
18 02:55 Calm 5.00 Fog/Mist BKN003 BKN029 51.8 51.8 100% 29.99 0.0
18 02:35 Calm 9.00 A Few Clouds FEW004 FEW029 51.8 51.8 100% 29.99 0.0
18 02:15 Calm 9.00 Fair CLR 51.8 51.8 100% 29.99 0.0
18 01:55 NW 3 8.00 Fair CLR 51.8 51.8 100% 29.99 0.0
18 01:30 NW 5 8.00 Fair CLR 53.6 53.6 100% 29.99 0.0
18 01:15 NW 3 9.00 Fair CLR 53.6 53.6 100% 29.99 0.0
18 00:55 NW 5 9.00 Fair CLR 53.6 53.6 100% 30 0.0
18 00:35 NW 3 3.00 Fog/Mist CLR 53.6 53.6 100% 30 0.0
18 00:15 NW 3 3.00 Fog/Mist CLR 53.6 53.6 100% 30 0.0
17 23:55 N 3 4.00 Fog/Mist FEW031 53.6 53.6 100% 30 0.0
17 23:35 NW 3 10.00 A Few Clouds FEW031 55.4 55.4 100% 30 0.0
17 23:15 N 5 9.00 A Few Clouds FEW032 55.4 55.4 100% 30 0.0
17 22:55 NW 5 9.00 Fair CLR 55.4 55.4 100% 30 0.0
17 22:35 NW 5 10.00 Fair CLR 55.4 55.4 100% 30 0.0
17 22:15 NW 5 10.00 Fair CLR 55.4 55.4 100% 30 0.0
17 21:55 NW 5 9.00 A Few Clouds FEW025 FEW030 55.4 55.4 100% 30 0.0
17 21:35 NW 3 9.00 A Few Clouds FEW025 55.4 55.4 100% 30 0.0
17 21:15 NW 6 9.00 Fair CLR 55.4 55.4 100% 30 0.0
17 20:55 Vrbl 5 9.00 Fair CLR 57.2 55.4 94% 30 0.0
17 20:35 Vrbl 6 G 12 8.00 Fair CLR 59 55.4 88% 30 0.0
17 20:15 W 8 10.00 Fair CLR 60.8 55.4 83% 29.99 0.0
17 19:55 W 8 9.00 Fair CLR 62.6 53.6 73% 29.99 0.0
17 19:35 W 10 10.00 Fair CLR 64.4 53.6 68% 29.99 0.0
17 19:15 W 8 9.00 Fair CLR 66.2 53.6 64% 29.99 0.0
17 18:55 W 10 10.00 Fair CLR 66.2 53.6 64% 29.99 0.0
17 18:35 W 8 9.00 Fair CLR 68 55.4 64% 29.99 0.0
17 18:15 Vrbl 5 G 12 9.00 Fair CLR 68 55.4 64% 30 0.0
17 17:55 W 8 G 15 9.00 Fair CLR 69.8 53.6 57% 30 0.0
17 17:35 W 9 G 17 9.00 Fair CLR 71.6 55.4 57% 30 0.0
17 17:15 W 9 G 17 10.00 Fair CLR 71.6 55.4 57% 30 0.0
17 16:55 W 9 G 15 10.00 Fair CLR 71.6 55.4 57% 30.01 0.0
17 16:35 W 13 9.00 Fair CLR 71.6 55.4 57% 30.01 0.0
17 16:15 NW 9 G 15 9.00 Fair CLR 71.6 55.4 57% 30.01 0.0
17 15:55 W 13 9.00 Fair CLR 73.4 53.6 50% 30.02 0.0
17 15:35 W 9 G 16 9.00 Fair CLR 73.4 55.4 53% 30.03 0.0
17 15:15 NW 10 10.00 Fair CLR 73.4 55.4 53% 30.03 0.0
17 14:55 W 13 9.00 Fair CLR 73.4 53.6 50% 30.03 0.0
17 14:35 W 12 10.00 Fair CLR 73.4 53.6 50% 30.03 0.0
17 14:15 W 10 10.00 Fair CLR 71.6 53.6 53% 30.04 0.0
17 13:55 W 10 10.00 Fair CLR 73.4 53.6 50% 30.04 0.0
17 13:35 W 12 9.00 Fair CLR 71.6 53.6 53% 30.05 0.0
17 13:15 W 10 10.00 Fair CLR 73.4 55.4 53% 30.05 0.0
17 12:50 W 13 10.00 Fair CLR 71.6 53.6 53% 30.05 0.0
17 12:35 W 8 G 16 10.00 Fair CLR 71.6 53.6 53% 30.06 0.0
17 12:15 W 9 9.00 Fair CLR 71.6 53.6 53% 30.06 0.0
17 11:55 W 10 9.00 Fair CLR 69.8 53.6 57% 30.06 0.0
17 11:35 W 9 9.00 Fair CLR 68 51.8 56% 30.06 0.0
17 11:15 W 9 10.00 Fair CLR 68 51.8 56% 30.06 0.0
17 10:55 W 10 9.00 Fair CLR 66.2 53.6 64% 30.06 0.0
17 10:35 W 8 10.00 Fair CLR 64.4 53.6 68% 30.06 0.0
17 10:15 W 6 10.00 A Few Clouds FEW017 62.6 53.6 73% 30.06 0.0
17 09:55 Vrbl 6 G 13 9.00 Mostly Cloudy BKN015 60.8 53.6 77% 30.06 0.0
17 09:35 W 6 G 13 9.00 Overcast OVC014 59 53.6 82% 30.06 0.0
17 09:15 W 8 9.00 Overcast OVC012 59 53.6 82% 30.07 0.0
17 08:55 W 7 9.00 Overcast OVC011 57.2 53.6 88% 30.07 0.0
17 08:35 NW 5 10.00 Overcast OVC010 57.2 53.6 88% 30.06 0.0
17 08:15 Calm 9.00 Overcast OVC010 55.4 53.6 94% 30.06 0.0
17 07:55 Vrbl 3 9.00 Overcast OVC010 55.4 53.6 94% 30.06 0.0
17 07:35 Vrbl 5 G 12 9.00 Overcast OVC010 55.4 53.6 94% 30.05 0.0
17 07:15 NW 5 9.00 Overcast OVC010 55.4 53.6 94% 30.05 0.0
17 06:55 W 7 9.00 Overcast OVC010 55.4 53.6 94% 30.05 0.0
17 06:35 Calm 9.00 Overcast OVC010 55.4 53.6 94% 30.04 0.0
17 06:15 W 6 10.00 Overcast OVC010 55.4 53.6 94% 30.04 0.0
17 05:50 W 8 10.00 Overcast OVC011 55.4 53.6 94% 30.03 0.0
17 05:35 W 9 10.00 Overcast OVC011 55.4 53.6 94% 30.03 0.0
17 05:15 W 7 10.00 Overcast OVC011 55.4 53.6 94% 30.03 0.0
17 04:55 Vrbl 5 10.00 Overcast OVC012 55.4 53.6 94% 30.02 0.0
17 04:35 Vrbl 6 10.00 Overcast OVC011 55.4 53.6 94% 30.02 0.0
17 04:15 NW 5 10.00 Overcast OVC011 55.4 53.6 94% 30.02 0.0
17 03:50 Vrbl 6 10.00 Overcast OVC011 55.4 53.6 94% 30.02 0.0
17 03:35 W 8 10.00 Overcast OVC011 55.4 53.6 94% 30.02 0.0
17 03:15 W 8 10.00 Overcast OVC010 55.4 53.6 94% 30.02 0.0
17 02:55 Vrbl 5 10.00 Overcast OVC010 55.4 53.6 94% 30.03 0.0
17 02:35 W 5 10.00 Overcast OVC009 55.4 53.6 94% 30.03 0.0
17 02:15 W 9 10.00 Overcast OVC010 55.4 53.6 94% 30.03 0.0
17 01:55 W 9 10.00 Overcast OVC011 55.4 51.8 88% 30.03 0.0
17 01:35 Vrbl 6 G 13 10.00 Overcast OVC011 55.4 51.8 88% 30.03 0.0
17 01:15 W 9 10.00 Overcast OVC011 55.4 53.6 94% 30.04 0.0
17 00:55 Vrbl 8 10.00 Overcast OVC013 55.4 51.8 88% 30.04 0.0
17 00:35 W 5 6.00 Fog/Mist OVC014 55.4 51.8 88% 30.04 0.0
17 00:15 Calm 10.00 Overcast OVC014 53.6 51.8 94% 30.03 0.0
16 23:55 Calm 7.00 Overcast BKN015 OVC020 53.6 51.8 94% 30.03 0.0
16 23:35 Calm 10.00 Overcast BKN018 OVC028 53.6 51.8 94% 30.03 0.0
16 23:15 NW 3 10.00 Partly Cloudy SCT018 53.6 51.8 94% 30.03 0.0
16 22:55 Calm 10.00 Fair CLR 53.6 51.8 94% 30.03 0.0
16 22:35 Vrbl 5 10.00 Partly Cloudy SCT017 SCT024 SCT031 53.6 51.8 94% 30.03 0.0
16 22:15 NW 3 10.00 Mostly Cloudy SCT018 BKN023 BKN029 53.6 51.8 94% 30.03 0.0
16 21:55 Calm 10.00 Mostly Cloudy SCT022 BKN028 55.4 51.8 88% 30.03 0.0
16 21:35 Vrbl 3 10.00 A Few Clouds FEW020 FEW033 55.4 51.8 88% 30.03 0.0
16 21:15 NW 5 10.00 Fair CLR 55.4 51.8 88% 30.03 0.0
16 20:55 Vrbl 7 G 13 10.00 Fair CLR 57.2 50 77% 30.03 0.0
16 20:35 W 12 10.00 Fair CLR 57.2 50 77% 30.03 0.0
16 20:15 W 10 G 18 9.00 Fair CLR 59 50 72% 30.03 0.0
16 19:55 W 12 10.00 Fair CLR 59 50 72% 30.03 0.0
16 19:35 W 10 G 18 9.00 Fair CLR 60.8 50 68% 30.02 0.0
16 19:15 NW 8 G 16 10.00 Fair CLR 60.8 50 68% 30.02 0.0
16 18:55 W 14 10.00 Fair CLR 62.6 50 64% 30.02 0.0
16 18:30 W 12 9.00 Fair CLR 62.6 50 64% 30.02 0.0
16 18:15 W 9 G 20 9.00 Fair CLR 64.4 50 60% 30.02 0.0
16 17:55 W 15 10.00 Fair CLR 66.2 50 56% 30.01 0.0
16 17:35 W 13 9.00 Fair CLR 66.2 50 56% 30.02 0.0
16 17:15 NW 12 G 21 10.00 Fair CLR 68 50 53% 30.02 0.0
16 16:55 NW 8 G 18 9.00 Fair CLR 68 50 53% 30.02 0.0
16 16:35 W 9 G 20 9.00 Fair CLR 69.8 50 50% 30.02 0.0
16 16:15 W 13 10.00 Fair CLR 69.8 50 50% 30.02 0.0
16 15:55 W 12 G 20 10.00 Fair CLR 71.6 50 47% 30.02 0.0
16 15:35 Vrbl 7 G 17 10.00 Fair CLR 69.8 51.8 53% 30.03 0.0
16 15:15 W 13 G 18 10.00 Fair CLR 71.6 50 47% 30.03 0.0
16 14:55 W 14 10.00 Fair CLR 73.4 51.8 47% 30.03 0.0
16 14:35 W 12 G 18 9.00 Fair CLR 71.6 51.8 50% 30.03 0.0
16 14:15 W 13 9.00 Fair CLR 73.4 51.8 47% 30.03 0.0
16 13:55 NW 8 G 16 9.00 Fair CLR 71.6 51.8 50% 30.03 0.0
16 13:35 W 12 9.00 Fair CLR 71.6 50 47% 30.03 0.0
16 13:15 Vrbl 3 G 15 9.00 Fair CLR 71.6 50 47% 30.03 0.0
16 12:55 W 9 9.00 Fair CLR 71.6 51.8 50% 30.04 0.0
16 12:35 Vrbl 6 G 15 9.00 Fair CLR 71.6 51.8 50% 30.04 0.0
16 12:15 Vrbl 5 G 12 10.00 Fair CLR 69.8 50 50% 30.04 0.0
16 11:55 W 10 9.00 Fair CLR 68 50 53% 30.04 0.0
16 11:35 Vrbl 6 G 13 9.00 Fair CLR 68 50 53% 30.04 0.0
16 11:15 W 8 10.00 Fair CLR 66.2 50 56% 30.04 0.0
16 10:35 W 8 10.00 Fair CLR 64.4 50 60% 30.05 0.0
16 10:15 Vrbl 6 G 13 9.00 A Few Clouds FEW024 62.6 50 64% 30.05 0.0
16 09:55 Vrbl 7 9.00 Partly Cloudy SCT024 62.6 51.8 68% 30.05 0.0
16 09:35 W 8 10.00 Overcast OVC022 60.8 50 68% 30.05 0.0
16 09:15 W 8 10.00 Overcast OVC020 60.8 50 68% 30.05 0.0
16 08:55 Vrbl 7 9.00 Partly Cloudy SCT019 60.8 51.8 72% 30.05 0.0
16 08:35 Vrbl 3 9.00 Fair CLR 59 51.8 77% 30.05 0.0
16 08:15 NW 5 9.00 A Few Clouds FEW018 57.2 51.8 82% 30.05 0.0
16 07:55 Calm 10.00 Fair CLR 55.4 51.8 88% 30.05 0.0
16 07:35 NW 5 9.00 Mostly Cloudy BKN018 53.6 51.8 94% 30.04 0.0
16 07:15 Calm 9.00 Partly Cloudy SCT017 51.8 51.8 100% 30.04 0.0
16 06:55 Calm 9.00 A Few Clouds FEW016 51.8 50 94% 30.03 0.0
16 06:35 Calm 8.00 Mostly Cloudy BKN016 50 50 100% 30.03 0.0
16 06:15 Calm 7.00 Overcast OVC016 50 48.2 94% 30.03 0.0
16 05:55 W 5 8.00 Partly Cloudy SCT016 48.2 48.2 100% 47 30.03 0.0
16 05:35 W 5 9.00 Fair CLR 48.2 48.2 100% 47 30.02 0.0
16 05:15 W 5 10.00 Fair CLR 50 48.2 94% 49 30.02 0.0
16 04:55 W 5 9.00 Fair CLR 50 50 100% 49 30.01 0.0
16 04:35 W 5 10.00 Fair CLR 50 50 100% 49 30.01 0.0
16 04:15 Calm 10.00 Fair CLR 50 50 100% 30.01 0.0
16 03:55 Calm 10.00 Fair CLR 51.8 50 94% 30.01 0.0
16 03:35 Calm 10.00 Fair CLR 51.8 50 94% 30.01 0.0
16 03:15 Calm 10.00 Fair CLR 51.8 50 94% 30.01 0.0
16 02:55 Calm 10.00 Fair CLR 51.8 50 94% 30.01 0.0
16 02:35 Calm 10.00 Fair CLR 51.8 50 94% 30.01 0.0
16 02:15 Calm 10.00 Fair CLR 51.8 50 94% 30.01 0.0
16 01:55 Calm 10.00 Fair CLR 51.8 50 94% 30.01 0.0
16 01:35 Calm 10.00 Fair CLR 51.8 50 94% 30.01 0.0
16 01:15 NW 3 10.00 Fair CLR 51.8 50 94% 30.01 0.0
16 00:50 Calm 10.00 Fair CLR 53.6 50 88% 30.01 0.0
16 00:35 Calm 10.00 Fair CLR 53.6 50 88% 30.02 0.0
16 00:15 Calm 10.00 Fair CLR 53.6 50 88% 30.02 0.0
15 23:55 Calm 9.00 Fair CLR 53.6 50 88% 30.02 0.0
15 23:35 Vrbl 5 10.00 Fair CLR 53.6 50 88% 30.02 0.0
15 23:15 Vrbl 5 10.00 Fair CLR 53.6 50 88% 30.02 0.0
15 22:55 NW 5 9.00 Fair CLR 53.6 50 88% 30.02 0.0
15 22:35 NW 5 10.00 Fair CLR 53.6 50 88% 30.03 0.0
15 22:15 NW 5 10.00 Fair CLR 53.6 50 88% 30.03 0.0
Date Time (pdt) Wind (mph) Vis. (mi.) Weather Sky Cond. Air Dwpt Max. Min. Relative Humidity Wind Chill (°F) Heat Index (°F) altimeter (in) sea level (mb) 1 hr 3 hr 6 hr
6 hour
Temperature (ºF) Pressure Precipitation (in)